Location: Chenereilles
(45.4866°N, 4.0790°E)
Time: 22:58:17
(UTC+00:00)

Cosmos 724 - Pass Details

Date: 12 November 2019
Orbit: 861 x 934 km, 65.6° (Epoch: 06 December)

Event Time Altitude Azimuth Distance (km) Brightness Sun altitude
Rises 18:27:58 0° 327° (NNW) 3,492 7.8 -23.0°
Reaches altitude 10° 18:30:34 10° 333° (NNW) 2,540 7.0 -23.5°
Enters shadow 18:36:08 50° 44° (NE) 1,094 4.4 -24.4°
